Stündliche Wetter Aarschot

Heute, 5 August, Donnerstag

Zeit Temperatur Niederschläge Wind Luftdruck Luftfeuchtigkeit
00:00 +14°C° 0 mm 0 m/S 755 mmHg 83%
01:00 +14°C° 0 mm 0 m/S 754 mmHg 85%
02:00 +14°C° 0 mm 0 m/S 754 mmHg 86%
03:00 +15°C° 0 mm 1 m/S 754 mmHg 88%
04:00 +15°C° 0.1 mm 1 m/S 754 mmHg 87%
05:00 +16°C° 0.1 mm 1 m/S 754 mmHg 86%
06:00 +16°C° 0 mm 1 m/S 754 mmHg 86%
07:00 +19°C° 0 mm 1 m/S 753 mmHg 79%
08:00 +20°C° 0 mm 1 m/S 753 mmHg 73%
09:00 +22°C° 0 mm 1 m/S 753 mmHg 67%
10:00 +23°C° 0.1 mm 2 m/S 752 mmHg 63%
11:00 +23°C° 0.1 mm 2 m/S 752 mmHg 59%
12:00 +24°C° 0.1 mm 3 m/S 752 mmHg 55%
13:00 +24°C° 0 mm 3 m/S 751 mmHg 55%
14:00 +25°C° 0 mm 3 m/S 751 mmHg 55%
15:00 +25°C° 0 mm 4 m/S 751 mmHg 55%
16:00 +24°C° 0.1 mm 3 m/S 750 mmHg 61%
17:00 +22°C° 0.1 mm 3 m/S 750 mmHg 66%
18:00 +21°C° 0.1 mm 2 m/S 750 mmHg 72%
19:00 +20°C° 0 mm 3 m/S 749 mmHg 74%
20:00 +19°C° 0 mm 3 m/S 749 mmHg 77%
21:00 +18°C° 0 mm 4 m/S 749 mmHg 79%
22:00 +18°C° 0.3 mm 4 m/S 749 mmHg 82%
23:00 +17°C° 0.3 mm 4 m/S 748 mmHg 85%

Morgen, 6 August, Freitag

Zeit Temperatur Niederschläge Wind Luftdruck Luftfeuchtigkeit
00:00 +17°C° 0.3 mm 4 m/S 748 mmHg 89%
01:00 +16°C° 0.3 mm 5 m/S 748 mmHg 90%
02:00 +16°C° 0.3 mm 5 m/S 747 mmHg 91%
03:00 +16°C° 0.3 mm 5 m/S 747 mmHg 93%
04:00 +16°C° 0.2 mm 5 m/S 747 mmHg 92%
05:00 +16°C° 0.2 mm 5 m/S 748 mmHg 92%
06:00 +16°C° 0.2 mm 5 m/S 748 mmHg 91%
07:00 +16°C° 0.1 mm 6 m/S 748 mmHg 88%
08:00 +17°C° 0.1 mm 7 m/S 748 mmHg 85%
09:00 +18°C° 0.1 mm 7 m/S 748 mmHg 82%
10:00 +18°C° 0.3 mm 8 m/S 748 mmHg 78%
11:00 +20°C° 0.3 mm 8 m/S 749 mmHg 75%
12:00 +21°C° 0.3 mm 8 m/S 749 mmHg 72%
13:00 +21°C° 0.3 mm 8 m/S 749 mmHg 70%
14:00 +21°C° 0.3 mm 8 m/S 749 mmHg 68%
15:00 +22°C° 0.3 mm 7 m/S 749 mmHg 67%
16:00 +21°C° 0.2 mm 7 m/S 749 mmHg 69%
17:00 +20°C° 0.2 mm 6 m/S 749 mmHg 71%
18:00 +20°C° 0.2 mm 5 m/S 750 mmHg 73%
19:00 +18°C° 0 mm 4 m/S 750 mmHg 77%
20:00 +17°C° 0 mm 4 m/S 750 mmHg 82%
21:00 +16°C° 0 mm 3 m/S 750 mmHg 86%
22:00 +16°C° 0 mm 3 m/S 750 mmHg 86%
23:00 +16°C° 0 mm 3 m/S 750 mmHg 86%

übermorgen, 7 August, Samstag

Zeit Temperatur Niederschläge Wind Luftdruck Luftfeuchtigkeit
00:00 +16°C° 0 mm 3 m/S 750 mmHg 85%
01:00 +14°C° 0 mm 3 m/S 750 mmHg 86%
02:00 +14°C° 0 mm 3 m/S 750 mmHg 88%
03:00 +14°C° 0 mm 3 m/S 750 mmHg 89%
04:00 +14°C° 0 mm 3 m/S 750 mmHg 88%
05:00 +15°C° 0 mm 2 m/S 749 mmHg 86%
06:00 +16°C° 0 mm 2 m/S 749 mmHg 85%
07:00 +17°C° 0 mm 3 m/S 749 mmHg 81%
08:00 +18°C° 0 mm 3 m/S 749 mmHg 78%
09:00 +19°C° 0 mm 3 m/S 749 mmHg 74%
10:00 +19°C° 0.2 mm 4 m/S 749 mmHg 71%
11:00 +20°C° 0.2 mm 5 m/S 748 mmHg 68%
12:00 +21°C° 0.2 mm 6 m/S 748 mmHg 66%
13:00 +21°C° 0.3 mm 6 m/S 748 mmHg 64%
14:00 +22°C° 0.3 mm 6 m/S 748 mmHg 61%
15:00 +22°C° 0.3 mm 5 m/S 748 mmHg 59%
16:00 +21°C° 0.3 mm 5 m/S 748 mmHg 65%
17:00 +20°C° 0.3 mm 5 m/S 748 mmHg 70%
18:00 +19°C° 0.3 mm 5 m/S 748 mmHg 76%
19:00 +17°C° 0.2 mm 5 m/S 748 mmHg 79%
20:00 +16°C° 0.2 mm 5 m/S 748 mmHg 82%
21:00 +15°C° 0.2 mm 5 m/S 748 mmHg 85%
22:00 +15°C° 0 mm 5 m/S 748 mmHg 85%
23:00 +15°C° 0 mm 6 m/S 749 mmHg 85%

8 August, Sonntag

Zeit Temperatur Niederschläge Wind Luftdruck Luftfeuchtigkeit
00:00 +14°C° 0 mm 6 m/S 749 mmHg 85%
01:00 +14°C° 0 mm 6 m/S 749 mmHg 85%
02:00 +14°C° 0 mm 6 m/S 749 mmHg 86%
03:00 +14°C° 0 mm 6 m/S 749 mmHg 86%
04:00 +14°C° 0.1 mm 6 m/S 749 mmHg 86%
05:00 +14°C° 0.1 mm 7 m/S 750 mmHg 87%
06:00 +14°C° 0.1 mm 7 m/S 750 mmHg 87%
07:00 +15°C° 0.2 mm 7 m/S 750 mmHg 87%
08:00 +15°C° 0.2 mm 8 m/S 751 mmHg 86%
09:00 +16°C° 0.2 mm 8 m/S 751 mmHg 85%
10:00 +17°C° 0.4 mm 8 m/S 752 mmHg 80%
11:00 +18°C° 0.4 mm 8 m/S 752 mmHg 74%
12:00 +20°C° 0.4 mm 8 m/S 753 mmHg 69%
13:00 +21°C° 0.1 mm 8 m/S 753 mmHg 64%
14:00 +21°C° 0.1 mm 8 m/S 754 mmHg 59%
15:00 +22°C° 0.1 mm 8 m/S 754 mmHg 54%
16:00 +21°C° 0.1 mm 7 m/S 755 mmHg 58%
17:00 +20°C° 0.1 mm 6 m/S 755 mmHg 63%
18:00 +19°C° 0.1 mm 6 m/S 755 mmHg 67%
19:00 +17°C° 0 mm 5 m/S 756 mmHg 72%
20:00 +15°C° 0 mm 4 m/S 756 mmHg 76%
21:00 +14°C° 0 mm 3 m/S 756 mmHg 81%
22:00 +14°C° 0 mm 3 m/S 757 mmHg 81%
23:00 +14°C° 0 mm 4 m/S 757 mmHg 82%

9 August, Montag

Zeit Temperatur Niederschläge Wind Luftdruck Luftfeuchtigkeit
00:00 +14°C° 0 mm 4 m/S 757 mmHg 82%
01:00 +14°C° 0 mm 4 m/S 757 mmHg 82%
02:00 +14°C° 0 mm 4 m/S 757 mmHg 82%
03:00 +14°C° 0 mm 4 m/S 756 mmHg 83%
04:00 +14°C° 0.3 mm 5 m/S 757 mmHg 85%
05:00 +14°C° 0.3 mm 5 m/S 757 mmHg 87%
06:00 +14°C° 0.3 mm 6 m/S 757 mmHg 89%
07:00 +15°C° 0.2 mm 6 m/S 757 mmHg 85%
08:00 +16°C° 0.2 mm 6 m/S 758 mmHg 81%
09:00 +17°C° 0.2 mm 7 m/S 758 mmHg 77%
10:00 +18°C° 0.3 mm 7 m/S 758 mmHg 76%
11:00 +19°C° 0.3 mm 6 m/S 759 mmHg 76%
12:00 +19°C° 0.3 mm 6 m/S 759 mmHg 75%
13:00 +20°C° 0.2 mm 6 m/S 759 mmHg 74%
14:00 +20°C° 0.2 mm 6 m/S 759 mmHg 72%
15:00 +20°C° 0.2 mm 6 m/S 759 mmHg 71%
16:00 +20°C° 0.3 mm 5 m/S 760 mmHg 73%
17:00 +19°C° 0.3 mm 5 m/S 760 mmHg 75%
18:00 +19°C° 0.3 mm 4 m/S 760 mmHg 77%
19:00 +18°C° 0 mm 4 m/S 760 mmHg 82%
20:00 +16°C° 0 mm 3 m/S 761 mmHg 86%
21:00 +14°C° 0 mm 3 m/S 761 mmHg 91%
22:00 +14°C° 0 mm 3 m/S 761 mmHg 91%
23:00 +14°C° 0 mm 3 m/S 761 mmHg 91%

10 August, Dienstag

Zeit Temperatur Niederschläge Wind Luftdruck Luftfeuchtigkeit
00:00 +13°C° 0 mm 3 m/S 761 mmHg 92%
01:00 +13°C° 0 mm 3 m/S 761 mmHg 93%
02:00 +13°C° 0 mm 3 m/S 761 mmHg 93%
03:00 +12°C° 0 mm 3 m/S 761 mmHg 94%
04:00 +13°C° 0 mm 3 m/S 762 mmHg 93%
05:00 +13°C° 0 mm 3 m/S 762 mmHg 92%
06:00 +14°C° 0 mm 3 m/S 762 mmHg 91%
07:00 +17°C° 0 mm 3 m/S 762 mmHg 82%
08:00 +19°C° 0 mm 3 m/S 762 mmHg 74%
09:00 +20°C° 0 mm 3 m/S 762 mmHg 66%
10:00 +21°C° 0 mm 3 m/S 762 mmHg 61%
11:00 +22°C° 0 mm 3 m/S 762 mmHg 56%
12:00 +24°C° 0 mm 2 m/S 762 mmHg 50%
13:00 +24°C° 0 mm 2 m/S 762 mmHg 51%
14:00 +24°C° 0 mm 2 m/S 761 mmHg 52%
15:00 +24°C° 0 mm 2 m/S 761 mmHg 53%
16:00 +23°C° 0 mm 2 m/S 761 mmHg 58%
17:00 +23°C° 0 mm 2 m/S 761 mmHg 62%
18:00 +21°C° 0 mm 2 m/S 761 mmHg 67%
19:00 +20°C° 0 mm 1 m/S 761 mmHg 71%
20:00 +19°C° 0 mm 1 m/S 761 mmHg 75%
21:00 +18°C° 0 mm 1 m/S 761 mmHg 79%
22:00 +16°C° 0 mm 1 m/S 761 mmHg 80%
23:00 +16°C° 0 mm 1 m/S 761 mmHg 82%
Mehr zeigen

Wir brauchen deine Erlaubnis

Meteoprog und unser Service Anbieter werden persönliche Daten aufbewahren, so wie Cookies, Geräte Bezeichnung oder ähnliche Technologien von deinem Gerät und Prozess, so wie Persönliche Daten Inhalte und Werbungen, genauso wie social Media und den Verkehr zu analysieren.

  • Aufbewahrung und/oder Zugang zu deiner Geräte Informationen.

    Cookies, Geräte Bezeichnung oder andere Informationen, können aufbewahrt oder Zugang zu deinem Gerät erhalten, für den Grund, der oben angegeben wird.

  • Personalisierte Werbung und Inhalte, Messungen, Einblick in das Publikum und Produkt Entwicklung.

    Werbungen und Inhalte können personalisiert werden, basierend auf ein Profil. Mehr Daten können besser personalisierte Werbungen und Inhalte hinzufügen. Werbung und Inhalte können gezeigt und gemessen werden. Einblicke über das Publikum, welche die Werbung gesehen haben und den Inhalt, können abgeleitet werden. So wie Daten können genutzt werden, um es zu verbessern oder die Benutzer Erfahrung zu verbessern das System und die Software.

Wenn du “Ich stimme zu” klickst, erlaubst du uns, die Cookies zu benutzen die Geräte Bezeichnung, den Web oder ähnliche Technologien zu benutzen. Deine Settings, können in deinem Gerät bei deinem Browser geändert werden.

Für den bestimmten Zweck, berechtigten Interessen beruhen darauf, mehr als auf den Inhalt. Du kannst mehr darüber in unseren Privaten und Cookie Politik lesen.